User: anonymous   Login
Location: Unspecified
(0.0000°N, 0.0000°E)
Time: 09:09:59
(UTC+00:00)
Language:

Oscar 17 - Orbit

View from above orbital plane
View from above orbital plane
View from above satellite
View from above satellite

Ground track
Ground track

The orbit data is extracted from the following two-line orbital elements,

1 20440U 90005E   18015.43347771  .00000004  00000-0  17706-4 0  9994
2 20440  98.6119 317.2419 0009845 238.1766 239.5810 14.33108064462046
Epoch (UTC): 15 January 2018 10:24:12
Eccentricity: 0.0009845
inclination: 98.6119°
perigee height: 774 km
apogee height: 788 km
right ascension of ascending node: 317.2419°
argument of perigee: 238.1766°
revolutions per day: 14.33108064
mean anomaly at epoch: 239.5810°
orbit number at epoch: 46204

The dashed part of the orbit path shows where the satellite is in the earth's shadow,  

DLR